Year,Month,Day,Hour,Minute,Value (Times are PST for temperature in C)
2015,10,03,00,00,9.80
2015,10,03,00,01,9.70
2015,10,03,00,02,9.70
2015,10,03,00,03,9.60
2015,10,03,00,04,9.60
2015,10,03,00,05,9.60
2015,10,03,00,06,9.60
2015,10,03,00,07,9.60
2015,10,03,00,08,9.60
2015,10,03,00,09,9.50
2015,10,03,00,10,9.50
2015,10,03,00,11,9.40
2015,10,03,00,12,9.40
2015,10,03,00,13,9.40
2015,10,03,00,14,9.40
2015,10,03,00,15,9.40
2015,10,03,00,16,9.40
2015,10,03,00,17,9.40
2015,10,03,00,18,9.30
2015,10,03,00,19,9.30
2015,10,03,00,20,9.30
2015,10,03,00,21,9.30
2015,10,03,00,22,9.20
2015,10,03,00,23,9.20
2015,10,03,00,24,9.20
2015,10,03,00,25,9.20
2015,10,03,00,26,9.20
2015,10,03,00,27,9.20
2015,10,03,00,28,9.20
2015,10,03,00,29,9.20
2015,10,03,00,30,9.20
2015,10,03,00,31,9.20
2015,10,03,00,32,9.20
2015,10,03,00,33,9.10
2015,10,03,00,34,9.10
2015,10,03,00,35,9.10
2015,10,03,00,36,9.10
2015,10,03,00,37,9.10
2015,10,03,00,38,9.10
2015,10,03,00,39,9.10
2015,10,03,00,40,9.10
2015,10,03,00,41,9.10
2015,10,03,00,42,9.10
2015,10,03,00,43,9.10
2015,10,03,00,44,9.10
2015,10,03,00,45,9.10
2015,10,03,00,46,9.10
2015,10,03,00,47,9.10
2015,10,03,00,48,9.10
2015,10,03,00,49,9.00
2015,10,03,00,50,9.00
2015,10,03,00,51,9.00
2015,10,03,00,52,8.90
2015,10,03,00,53,8.90
2015,10,03,00,54,8.90
2015,10,03,00,55,8.90
2015,10,03,00,56,8.90
2015,10,03,00,57,8.90
2015,10,03,00,58,8.80
2015,10,03,00,59,8.80
2015,10,03,01,00,8.80
2015,10,03,01,01,8.90
2015,10,03,01,02,8.90
2015,10,03,01,03,8.90
2015,10,03,01,04,8.90
2015,10,03,01,05,9.00
2015,10,03,01,06,9.00
2015,10,03,01,07,9.10
2015,10,03,01,08,9.10
2015,10,03,01,09,9.20
2015,10,03,01,10,9.30
2015,10,03,01,11,9.30
2015,10,03,01,12,9.40
2015,10,03,01,13,9.40
2015,10,03,01,14,9.40
2015,10,03,01,15,9.40
2015,10,03,01,16,9.40
2015,10,03,01,17,9.40
2015,10,03,01,18,9.50
2015,10,03,01,19,9.50
2015,10,03,01,20,9.60
2015,10,03,01,21,9.60
2015,10,03,01,22,9.70
2015,10,03,01,23,9.70
2015,10,03,01,24,9.80
2015,10,03,01,25,9.80
2015,10,03,01,26,9.90
2015,10,03,01,27,9.90
2015,10,03,01,28,10.00
2015,10,03,01,29,10.00
2015,10,03,01,30,10.00
2015,10,03,01,31,10.10
2015,10,03,01,32,10.10
2015,10,03,01,33,10.10
2015,10,03,01,34,10.10
2015,10,03,01,35,10.10
2015,10,03,01,36,10.10
2015,10,03,01,37,10.10
2015,10,03,01,38,10.10
2015,10,03,01,39,10.10
2015,10,03,01,40,10.10
2015,10,03,01,41,10.10
2015,10,03,01,42,10.10
2015,10,03,01,43,10.10
2015,10,03,01,44,10.10
2015,10,03,01,45,10.10
2015,10,03,01,46,10.10
2015,10,03,01,47,10.10
2015,10,03,01,48,10.10
2015,10,03,01,49,10.10
2015,10,03,01,50,10.10
2015,10,03,01,51,10.10
2015,10,03,01,52,10.10
2015,10,03,01,53,10.20
2015,10,03,01,54,10.20
2015,10,03,01,55,10.20
2015,10,03,01,56,10.20
2015,10,03,01,57,10.20
2015,10,03,01,58,10.20
2015,10,03,01,59,10.20
2015,10,03,02,00,10.20
2015,10,03,02,01,10.20
2015,10,03,02,02,10.20
2015,10,03,02,03,10.20
2015,10,03,02,04,10.20
2015,10,03,02,05,10.20
2015,10,03,02,06,10.20
2015,10,03,02,07,10.10
2015,10,03,02,08,10.10
2015,10,03,02,09,10.10
2015,10,03,02,10,10.10
2015,10,03,02,11,10.10
2015,10,03,02,12,10.10
2015,10,03,02,13,10.00
2015,10,03,02,14,10.00
2015,10,03,02,15,10.00
2015,10,03,02,16,9.90
2015,10,03,02,17,9.90
2015,10,03,02,18,9.90
2015,10,03,02,19,9.90
2015,10,03,02,20,9.90
2015,10,03,02,21,9.90
2015,10,03,02,22,9.90
2015,10,03,02,23,9.80
2015,10,03,02,24,9.80
2015,10,03,02,25,9.80
2015,10,03,02,26,9.80
2015,10,03,02,27,9.80
2015,10,03,02,28,9.80
2015,10,03,02,29,9.80
2015,10,03,02,30,9.80
2015,10,03,02,31,9.80
2015,10,03,02,32,9.80
2015,10,03,02,33,9.80
2015,10,03,02,34,9.80
2015,10,03,02,35,9.80
2015,10,03,02,36,9.80
2015,10,03,02,37,9.80
2015,10,03,02,38,9.70
2015,10,03,02,39,9.70
2015,10,03,02,40,9.70
2015,10,03,02,41,9.70
2015,10,03,02,42,9.70
2015,10,03,02,43,9.60
2015,10,03,02,44,9.60
2015,10,03,02,45,9.60
2015,10,03,02,46,9.60
2015,10,03,02,47,9.50
2015,10,03,02,48,9.50
2015,10,03,02,49,9.50
2015,10,03,02,50,9.50
2015,10,03,02,51,9.40
2015,10,03,02,52,9.40
2015,10,03,02,53,9.40
2015,10,03,02,54,9.40
2015,10,03,02,55,9.40
2015,10,03,02,56,9.40
2015,10,03,02,57,9.40
2015,10,03,02,58,9.40
2015,10,03,02,59,9.40
2015,10,03,03,00,9.40
2015,10,03,03,01,9.40
2015,10,03,03,02,9.40
2015,10,03,03,03,9.40
2015,10,03,03,04,9.40
2015,10,03,03,05,9.30
2015,10,03,03,06,9.30
2015,10,03,03,07,9.30
2015,10,03,03,08,9.30
2015,10,03,03,09,9.30
2015,10,03,03,10,9.20
2015,10,03,03,11,9.20
2015,10,03,03,12,9.20
2015,10,03,03,13,9.20
2015,10,03,03,14,9.20
2015,10,03,03,15,9.20
2015,10,03,03,16,9.20
2015,10,03,03,17,9.20
2015,10,03,03,18,9.20
2015,10,03,03,19,9.20
2015,10,03,03,20,9.20
2015,10,03,03,21,9.20
2015,10,03,03,22,9.20
2015,10,03,03,23,9.20
2015,10,03,03,24,9.20
2015,10,03,03,25,9.20
2015,10,03,03,26,9.20
2015,10,03,03,27,9.20
2015,10,03,03,28,9.30
2015,10,03,03,29,9.30
2015,10,03,03,30,9.40
2015,10,03,03,31,9.40
2015,10,03,03,32,9.40
2015,10,03,03,33,9.50
2015,10,03,03,34,9.60
2015,10,03,03,35,9.60
2015,10,03,03,36,9.60
2015,10,03,03,37,9.60
2015,10,03,03,38,9.60
2015,10,03,03,39,9.60
2015,10,03,03,40,9.60
2015,10,03,03,41,9.70
2015,10,03,03,42,9.70
2015,10,03,03,43,9.70
2015,10,03,03,44,9.70
2015,10,03,03,45,9.70
2015,10,03,03,46,9.70
2015,10,03,03,47,9.70
2015,10,03,03,48,9.70
2015,10,03,03,49,9.70
2015,10,03,03,50,9.70
2015,10,03,03,51,9.70
2015,10,03,03,52,9.70
2015,10,03,03,53,9.70
2015,10,03,03,54,9.70
2015,10,03,03,55,9.70
2015,10,03,03,56,9.80
2015,10,03,03,57,9.80
2015,10,03,03,58,9.80
2015,10,03,03,59,9.90
2015,10,03,04,00,9.90
2015,10,03,04,01,9.90
2015,10,03,04,02,9.90
2015,10,03,04,03,9.90
2015,10,03,04,04,9.90
2015,10,03,04,05,9.90
2015,10,03,04,06,9.90
2015,10,03,04,07,9.90
2015,10,03,04,08,9.90
2015,10,03,04,09,10.00
2015,10,03,04,10,10.00
2015,10,03,04,11,10.10
2015,10,03,04,12,10.00
2015,10,03,04,13,10.10
2015,10,03,04,14,10.10
2015,10,03,04,15,10.10
2015,10,03,04,16,10.10
2015,10,03,04,17,10.10
2015,10,03,04,18,10.10
2015,10,03,04,19,10.10
2015,10,03,04,20,10.10
2015,10,03,04,21,10.10
2015,10,03,04,22,10.10
2015,10,03,04,23,10.10
2015,10,03,04,24,10.10
2015,10,03,04,25,10.10
2015,10,03,04,26,10.10
2015,10,03,04,27,10.10
2015,10,03,04,28,10.10
2015,10,03,04,29,10.10
2015,10,03,04,30,10.10
2015,10,03,04,31,10.10
2015,10,03,04,32,10.10
2015,10,03,04,33,10.10
2015,10,03,04,34,10.20
2015,10,03,04,35,10.20
2015,10,03,04,36,10.20
2015,10,03,04,37,10.10
2015,10,03,04,38,10.10
2015,10,03,04,39,10.10
2015,10,03,04,40,10.00
2015,10,03,04,41,10.00
2015,10,03,04,42,9.90
2015,10,03,04,43,9.90
2015,10,03,04,44,9.90
2015,10,03,04,45,9.90
2015,10,03,04,46,9.90
2015,10,03,04,47,9.90
2015,10,03,04,48,9.90
2015,10,03,04,49,9.90
2015,10,03,04,50,9.90
2015,10,03,04,51,9.90
2015,10,03,04,52,9.90
2015,10,03,04,53,9.90
2015,10,03,04,54,9.90
2015,10,03,04,55,9.90
2015,10,03,04,56,9.80
2015,10,03,04,57,9.80
2015,10,03,04,58,9.80
2015,10,03,04,59,9.80
2015,10,03,05,00,9.80
2015,10,03,05,01,9.70
2015,10,03,05,02,9.70
2015,10,03,05,03,9.70
2015,10,03,05,04,9.70
2015,10,03,05,05,9.70
2015,10,03,05,06,9.60
2015,10,03,05,07,9.60
2015,10,03,05,08,9.60
2015,10,03,05,09,9.50
2015,10,03,05,10,9.50
2015,10,03,05,11,9.40
2015,10,03,05,12,9.40
2015,10,03,05,13,9.40
2015,10,03,05,14,9.30
2015,10,03,05,15,9.30
2015,10,03,05,16,9.30
2015,10,03,05,17,9.20
2015,10,03,05,18,9.20
2015,10,03,05,19,9.20
2015,10,03,05,20,9.20
2015,10,03,05,21,9.10
2015,10,03,05,22,9.10
2015,10,03,05,23,9.10
2015,10,03,05,24,9.00
2015,10,03,05,25,9.00
2015,10,03,05,26,9.00
2015,10,03,05,27,8.90
2015,10,03,05,28,8.90
2015,10,03,05,29,8.90
2015,10,03,05,30,8.80
2015,10,03,05,31,8.80
2015,10,03,05,32,8.80
2015,10,03,05,33,8.80
2015,10,03,05,34,8.70
2015,10,03,05,35,8.70
2015,10,03,05,36,8.80
2015,10,03,05,37,8.80
2015,10,03,05,38,8.80
2015,10,03,05,39,8.80
2015,10,03,05,40,8.80
2015,10,03,05,41,8.80
2015,10,03,05,42,8.80
2015,10,03,05,43,8.80
2015,10,03,05,44,8.80
2015,10,03,05,45,8.80
2015,10,03,05,46,8.80
2015,10,03,05,47,8.80
2015,10,03,05,48,8.80
2015,10,03,05,49,8.80
2015,10,03,05,50,8.80
2015,10,03,05,51,8.80
2015,10,03,05,52,8.80
2015,10,03,05,53,8.70
2015,10,03,05,54,8.70
2015,10,03,05,55,8.70
2015,10,03,05,56,8.70
2015,10,03,05,57,8.70
2015,10,03,05,58,8.60
2015,10,03,05,59,8.60
2015,10,03,06,00,8.60
2015,10,03,06,01,8.60
2015,10,03,06,02,8.50
2015,10,03,06,03,8.50
2015,10,03,06,04,8.50
2015,10,03,06,05,8.40
2015,10,03,06,06,8.40
2015,10,03,06,07,8.40
2015,10,03,06,08,8.30
2015,10,03,06,09,8.30
2015,10,03,06,10,8.30
2015,10,03,06,11,8.30
2015,10,03,06,12,8.20
2015,10,03,06,13,8.20
2015,10,03,06,14,8.20
2015,10,03,06,15,8.20
2015,10,03,06,16,8.20
2015,10,03,06,17,8.30
2015,10,03,06,18,8.30
2015,10,03,06,19,8.30
2015,10,03,06,20,8.30
2015,10,03,06,21,8.30
2015,10,03,06,22,8.30
2015,10,03,06,23,8.30
2015,10,03,06,24,8.30
2015,10,03,06,25,8.30
2015,10,03,06,26,8.30
2015,10,03,06,27,8.30
2015,10,03,06,28,8.20
2015,10,03,06,29,8.20
2015,10,03,06,30,8.20
2015,10,03,06,31,8.20
2015,10,03,06,32,8.20
2015,10,03,06,33,8.20
2015,10,03,06,34,8.20
2015,10,03,06,35,8.20
2015,10,03,06,36,8.20
2015,10,03,06,37,8.20
2015,10,03,06,38,8.10
2015,10,03,06,39,8.10
2015,10,03,06,40,8.10
2015,10,03,06,41,8.00
2015,10,03,06,42,8.00
2015,10,03,06,43,7.90
2015,10,03,06,44,7.90
2015,10,03,06,45,7.90
2015,10,03,06,46,7.90
2015,10,03,06,47,7.90
2015,10,03,06,48,7.90
2015,10,03,06,49,7.90
2015,10,03,06,50,7.90
2015,10,03,06,51,7.90
2015,10,03,06,52,7.90
2015,10,03,06,53,7.90
2015,10,03,06,54,7.90
2015,10,03,06,55,7.90
2015,10,03,06,56,7.90
2015,10,03,06,57,7.80
2015,10,03,06,58,7.80
2015,10,03,06,59,7.80
2015,10,03,07,00,7.80
2015,10,03,07,01,7.80
2015,10,03,07,02,7.80
2015,10,03,07,03,7.80
2015,10,03,07,04,7.80
2015,10,03,07,05,7.80
2015,10,03,07,06,7.80
2015,10,03,07,07,7.80
2015,10,03,07,08,7.80
2015,10,03,07,09,7.80
2015,10,03,07,10,7.70
2015,10,03,07,11,7.70
2015,10,03,07,12,7.70
2015,10,03,07,13,7.70
2015,10,03,07,14,7.60
2015,10,03,07,15,7.60
2015,10,03,07,16,7.60
2015,10,03,07,17,7.60
2015,10,03,07,18,7.60
2015,10,03,07,19,7.60
2015,10,03,07,20,7.60
2015,10,03,07,21,7.70
2015,10,03,07,22,7.70
2015,10,03,07,23,7.70
2015,10,03,07,24,7.70
2015,10,03,07,25,7.70
2015,10,03,07,26,7.70
2015,10,03,07,27,7.80
2015,10,03,07,28,7.80
2015,10,03,07,29,7.80
2015,10,03,07,30,7.80
2015,10,03,07,31,7.80
2015,10,03,07,32,7.80
2015,10,03,07,33,7.90
2015,10,03,07,34,7.90
2015,10,03,07,35,7.90
2015,10,03,07,36,7.90
2015,10,03,07,37,7.90
2015,10,03,07,38,8.00
2015,10,03,07,39,8.00
2015,10,03,07,40,7.90
2015,10,03,07,41,7.90
2015,10,03,07,42,7.90
2015,10,03,07,43,7.90
2015,10,03,07,44,7.90
2015,10,03,07,45,7.90
2015,10,03,07,46,7.90
2015,10,03,07,47,7.90
2015,10,03,07,48,7.90
2015,10,03,07,49,7.90
2015,10,03,07,50,7.90
2015,10,03,07,51,7.90
2015,10,03,07,52,7.90
2015,10,03,07,53,8.00
2015,10,03,07,54,8.00
2015,10,03,07,55,8.10
2015,10,03,07,56,8.10
2015,10,03,07,57,8.10
2015,10,03,07,58,8.20
2015,10,03,07,59,8.30
2015,10,03,08,00,8.30
2015,10,03,08,01,8.30
2015,10,03,08,02,8.40
2015,10,03,08,03,8.40
2015,10,03,08,04,8.50
2015,10,03,08,05,8.50
2015,10,03,08,06,8.50
2015,10,03,08,07,8.60
2015,10,03,08,08,8.60
2015,10,03,08,09,8.70
2015,10,03,08,10,8.70
2015,10,03,08,11,8.70
2015,10,03,08,12,8.80
2015,10,03,08,13,8.80
2015,10,03,08,14,8.80
2015,10,03,08,15,8.80
2015,10,03,08,16,8.90
2015,10,03,08,17,8.90
2015,10,03,08,18,8.90
2015,10,03,08,19,8.90
2015,10,03,08,20,8.90
2015,10,03,08,21,8.90
2015,10,03,08,22,8.90
2015,10,03,08,23,8.90
2015,10,03,08,24,8.90
2015,10,03,08,25,8.80
2015,10,03,08,26,8.80
2015,10,03,08,27,8.80
2015,10,03,08,28,8.80
2015,10,03,08,29,8.80
2015,10,03,08,30,8.90
2015,10,03,08,31,8.90
2015,10,03,08,32,8.90
2015,10,03,08,33,8.80
2015,10,03,08,34,8.90
2015,10,03,08,35,8.90
2015,10,03,08,36,8.90
2015,10,03,08,37,8.90
2015,10,03,08,38,9.00
2015,10,03,08,39,9.00
2015,10,03,08,40,9.00
2015,10,03,08,41,9.10
2015,10,03,08,42,9.10
2015,10,03,08,43,9.20
2015,10,03,08,44,9.20
2015,10,03,08,45,9.20
2015,10,03,08,46,9.20
2015,10,03,08,47,9.30
2015,10,03,08,48,9.30
2015,10,03,08,49,9.30
2015,10,03,08,50,9.40
2015,10,03,08,51,9.40
2015,10,03,08,52,9.50
2015,10,03,08,53,9.50
2015,10,03,08,54,9.50
2015,10,03,08,55,9.60
2015,10,03,08,56,9.60
2015,10,03,08,57,9.60
2015,10,03,08,58,9.70
2015,10,03,08,59,9.70
2015,10,03,09,00,9.70
2015,10,03,09,01,9.80
2015,10,03,09,02,9.80
2015,10,03,09,03,9.90
2015,10,03,09,04,9.90
2015,10,03,09,05,10.00
2015,10,03,09,06,10.10
2015,10,03,09,07,10.20
2015,10,03,09,08,10.30
2015,10,03,09,09,10.40
2015,10,03,09,10,10.50
2015,10,03,09,11,10.50
2015,10,03,09,12,10.60
2015,10,03,09,13,10.70
2015,10,03,09,14,10.70
2015,10,03,09,15,10.80
2015,10,03,09,16,10.90
2015,10,03,09,17,11.00
2015,10,03,09,18,11.10
2015,10,03,09,19,11.10
2015,10,03,09,20,11.20
2015,10,03,09,21,11.30
2015,10,03,09,22,11.30
2015,10,03,09,23,11.40
2015,10,03,09,24,11.50
2015,10,03,09,25,11.50
2015,10,03,09,26,11.60
2015,10,03,09,27,11.70
2015,10,03,09,28,11.80
2015,10,03,09,29,11.90
2015,10,03,09,30,12.00
2015,10,03,09,31,12.10
2015,10,03,09,32,12.20
2015,10,03,09,33,12.30
2015,10,03,09,34,12.40
2015,10,03,09,35,12.50
2015,10,03,09,36,12.60
2015,10,03,09,37,12.70
2015,10,03,09,38,12.70
2015,10,03,09,39,12.80
2015,10,03,09,40,12.80
2015,10,03,09,41,12.90
2015,10,03,09,42,12.90
2015,10,03,09,43,13.00
2015,10,03,09,44,13.00
2015,10,03,09,45,13.10
2015,10,03,09,46,13.20
2015,10,03,09,47,13.30
2015,10,03,09,48,13.30
2015,10,03,09,49,13.40
2015,10,03,09,50,13.50
2015,10,03,09,51,13.60
2015,10,03,09,52,13.70
2015,10,03,09,53,13.80
2015,10,03,09,54,13.90
2015,10,03,09,55,13.90
2015,10,03,09,56,14.00
2015,10,03,09,57,14.10
2015,10,03,09,58,14.10
2015,10,03,09,59,14.20
2015,10,03,10,00,14.30
2015,10,03,10,01,14.30
2015,10,03,10,02,14.40
2015,10,03,10,03,14.40
2015,10,03,10,04,14.50
2015,10,03,10,05,14.50
2015,10,03,10,06,14.60
2015,10,03,10,07,14.60
2015,10,03,10,08,14.70
2015,10,03,10,09,14.80
2015,10,03,10,10,14.80
2015,10,03,10,11,14.90
2015,10,03,10,12,14.90
2015,10,03,10,13,15.00
2015,10,03,10,14,15.10
2015,10,03,10,15,15.10
2015,10,03,10,16,15.20
2015,10,03,10,17,15.20
2015,10,03,10,18,15.30
2015,10,03,10,19,15.30
2015,10,03,10,20,15.30
2015,10,03,10,21,15.40
2015,10,03,10,22,15.50
2015,10,03,10,23,15.60
2015,10,03,10,24,15.60
2015,10,03,10,25,15.70
2015,10,03,10,26,15.80
2015,10,03,10,27,15.80
2015,10,03,10,28,15.90
2015,10,03,10,29,16.00
2015,10,03,10,30,16.10
2015,10,03,10,31,16.10
2015,10,03,10,32,16.20
2015,10,03,10,33,16.20
2015,10,03,10,34,16.20
2015,10,03,10,35,16.30
2015,10,03,10,36,16.30
2015,10,03,10,37,16.30
2015,10,03,10,38,16.40
2015,10,03,10,39,16.40
2015,10,03,10,40,16.50
2015,10,03,10,41,16.50
2015,10,03,10,42,16.60
2015,10,03,10,43,16.70
2015,10,03,10,44,16.70
2015,10,03,10,45,16.80
2015,10,03,10,46,16.80
2015,10,03,10,47,16.80
2015,10,03,10,48,16.80
2015,10,03,10,49,16.90
2015,10,03,10,50,16.90
2015,10,03,10,51,16.90
2015,10,03,10,52,16.90
2015,10,03,10,53,16.90
2015,10,03,10,54,16.90
2015,10,03,10,55,16.90
2015,10,03,10,56,16.80
2015,10,03,10,57,16.80
2015,10,03,10,58,16.80
2015,10,03,10,59,16.90
2015,10,03,11,00,16.90
2015,10,03,11,01,17.00
2015,10,03,11,02,17.10
2015,10,03,11,03,17.10
2015,10,03,11,04,17.20
2015,10,03,11,05,17.20
2015,10,03,11,06,17.30
2015,10,03,11,07,17.30
2015,10,03,11,08,17.30
2015,10,03,11,09,17.30
2015,10,03,11,10,17.30
2015,10,03,11,11,17.40
2015,10,03,11,12,17.40
2015,10,03,11,13,17.50
2015,10,03,11,14,17.50
2015,10,03,11,15,17.60
2015,10,03,11,16,17.60
2015,10,03,11,17,17.70
2015,10,03,11,18,17.70
2015,10,03,11,19,17.80
2015,10,03,11,20,17.80
2015,10,03,11,21,17.80
2015,10,03,11,22,17.70
2015,10,03,11,23,17.80
2015,10,03,11,24,17.80
2015,10,03,11,25,17.80
2015,10,03,11,26,17.80
2015,10,03,11,27,17.80
2015,10,03,11,28,17.80
2015,10,03,11,29,17.80
2015,10,03,11,30,17.80
2015,10,03,11,31,17.90
2015,10,03,11,32,17.90
2015,10,03,11,33,17.80
2015,10,03,11,34,17.80
2015,10,03,11,35,17.80
2015,10,03,11,36,17.80
2015,10,03,11,37,17.80
2015,10,03,11,38,17.80
2015,10,03,11,39,17.80
2015,10,03,11,40,17.80
2015,10,03,11,41,17.80
2015,10,03,11,42,17.90
2015,10,03,11,43,17.90
2015,10,03,11,44,17.90
2015,10,03,11,45,17.90
2015,10,03,11,46,17.90
2015,10,03,11,47,17.90
2015,10,03,11,48,17.90
2015,10,03,11,49,17.90
2015,10,03,11,50,18.00
2015,10,03,11,51,18.00
2015,10,03,11,52,18.00
2015,10,03,11,53,18.00
2015,10,03,11,54,18.10
2015,10,03,11,55,18.10
2015,10,03,11,56,18.00
2015,10,03,11,57,18.00
2015,10,03,11,58,17.90
2015,10,03,11,59,17.90
2015,10,03,12,00,17.90
2015,10,03,12,01,18.00
2015,10,03,12,02,18.00
2015,10,03,12,03,18.10
2015,10,03,12,04,18.10
2015,10,03,12,05,18.20
2015,10,03,12,06,18.10
2015,10,03,12,07,18.10
2015,10,03,12,08,18.10
2015,10,03,12,09,18.10
2015,10,03,12,10,18.20
2015,10,03,12,11,18.20
2015,10,03,12,12,18.20
2015,10,03,12,13,18.20
2015,10,03,12,14,18.20
2015,10,03,12,15,18.20
2015,10,03,12,16,18.20
2015,10,03,12,17,18.20
2015,10,03,12,18,18.20
2015,10,03,12,19,18.10
2015,10,03,12,20,18.10
2015,10,03,12,21,18.10
2015,10,03,12,22,18.00
2015,10,03,12,23,18.00
2015,10,03,12,24,17.90
2015,10,03,12,25,17.90
2015,10,03,12,26,18.00
2015,10,03,12,27,18.00
2015,10,03,12,28,18.10
2015,10,03,12,29,18.10
2015,10,03,12,30,18.20
2015,10,03,12,31,18.20
2015,10,03,12,32,18.20
2015,10,03,12,33,18.20
2015,10,03,12,34,18.10
2015,10,03,12,35,18.10
2015,10,03,12,36,18.10
2015,10,03,12,37,18.10
2015,10,03,12,38,18.10
2015,10,03,12,39,18.10
2015,10,03,12,40,18.10
2015,10,03,12,41,18.10
2015,10,03,12,42,18.10
2015,10,03,12,43,18.10
2015,10,03,12,44,18.10
2015,10,03,12,45,18.20
2015,10,03,12,46,18.30
2015,10,03,12,47,18.30
2015,10,03,12,48,18.30
2015,10,03,12,49,18.40
2015,10,03,12,50,18.50
2015,10,03,12,51,18.60
2015,10,03,12,52,18.70
2015,10,03,12,53,18.70
2015,10,03,12,54,18.80
2015,10,03,12,55,18.80
2015,10,03,12,56,18.80
2015,10,03,12,57,18.80
2015,10,03,12,58,18.80
2015,10,03,12,59,18.70
2015,10,03,13,00,18.80
2015,10,03,13,01,18.80
2015,10,03,13,02,18.80
2015,10,03,13,03,18.80
2015,10,03,13,04,18.70
2015,10,03,13,05,18.70
2015,10,03,13,06,18.70
2015,10,03,13,07,18.80
2015,10,03,13,08,18.90
2015,10,03,13,09,19.00
2015,10,03,13,10,19.00
2015,10,03,13,11,19.00
2015,10,03,13,12,19.00
2015,10,03,13,13,19.10
2015,10,03,13,14,19.10
2015,10,03,13,15,19.10
2015,10,03,13,16,19.20
2015,10,03,13,17,19.20
2015,10,03,13,18,19.20
2015,10,03,13,19,19.10
2015,10,03,13,20,19.10
2015,10,03,13,21,19.10
2015,10,03,13,22,19.10
2015,10,03,13,23,19.00
2015,10,03,13,24,18.90
2015,10,03,13,25,18.80
2015,10,03,13,26,18.80
2015,10,03,13,27,18.80
2015,10,03,13,28,18.90
2015,10,03,13,29,18.90
2015,10,03,13,30,19.00
2015,10,03,13,31,19.10
2015,10,03,13,32,19.10
2015,10,03,13,33,19.20
2015,10,03,13,34,19.10
2015,10,03,13,35,19.10
2015,10,03,13,36,19.10
2015,10,03,13,37,19.00
2015,10,03,13,38,19.00
2015,10,03,13,39,19.00
2015,10,03,13,40,19.00
2015,10,03,13,41,19.00
2015,10,03,13,42,18.90
2015,10,03,13,43,18.90
2015,10,03,13,44,18.90
2015,10,03,13,45,18.90
2015,10,03,13,46,19.00
2015,10,03,13,47,19.00
2015,10,03,13,48,19.10
2015,10,03,13,49,19.10
2015,10,03,13,50,19.20
2015,10,03,13,51,19.20
2015,10,03,13,52,19.20
2015,10,03,13,53,19.20
2015,10,03,13,54,19.20
2015,10,03,13,55,19.20
2015,10,03,13,56,19.30
2015,10,03,13,57,19.30
2015,10,03,13,58,19.30
2015,10,03,13,59,19.30
2015,10,03,14,00,19.30
2015,10,03,14,01,19.30
2015,10,03,14,02,19.30
2015,10,03,14,03,19.20
2015,10,03,14,04,19.10
2015,10,03,14,05,19.00
2015,10,03,14,06,19.00
2015,10,03,14,07,18.90
2015,10,03,14,08,18.90
2015,10,03,14,09,18.90
2015,10,03,14,10,18.80
2015,10,03,14,11,18.80
2015,10,03,14,12,18.80
2015,10,03,14,13,18.80
2015,10,03,14,14,18.80
2015,10,03,14,15,18.80
2015,10,03,14,16,18.70
2015,10,03,14,17,18.70
2015,10,03,14,18,18.60
2015,10,03,14,19,18.60
2015,10,03,14,20,18.60
2015,10,03,14,21,18.60
2015,10,03,14,22,18.60
2015,10,03,14,23,18.60
2015,10,03,14,24,18.60
2015,10,03,14,25,18.60
2015,10,03,14,26,18.60
2015,10,03,14,27,18.50
2015,10,03,14,28,18.50
2015,10,03,14,29,18.50
2015,10,03,14,30,18.50
2015,10,03,14,31,18.50
2015,10,03,14,32,18.50
2015,10,03,14,33,18.50
2015,10,03,14,34,18.50
2015,10,03,14,35,18.50
2015,10,03,14,36,18.40
2015,10,03,14,37,18.50
2015,10,03,14,38,18.50
2015,10,03,14,39,18.50
2015,10,03,14,40,18.50
2015,10,03,14,41,18.50
2015,10,03,14,42,18.50
2015,10,03,14,43,18.60
2015,10,03,14,44,18.60
2015,10,03,14,45,18.60
2015,10,03,14,46,18.60
2015,10,03,14,47,18.60
2015,10,03,14,48,18.60
2015,10,03,14,49,18.60
2015,10,03,14,50,18.60
2015,10,03,14,51,18.60
2015,10,03,14,52,18.60
2015,10,03,14,53,18.60
2015,10,03,14,54,18.60
2015,10,03,14,55,18.60
2015,10,03,14,56,18.60
2015,10,03,14,57,18.70
2015,10,03,14,58,18.70
2015,10,03,14,59,18.70
2015,10,03,15,00,18.70
2015,10,03,15,01,18.70
2015,10,03,15,02,18.70
2015,10,03,15,03,18.70
2015,10,03,15,04,18.70
2015,10,03,15,05,18.70
2015,10,03,15,06,18.70
2015,10,03,15,07,18.80
2015,10,03,15,08,18.80
2015,10,03,15,09,18.80
2015,10,03,15,10,18.80
2015,10,03,15,11,18.80
2015,10,03,15,12,18.80
2015,10,03,15,13,18.80
2015,10,03,15,14,18.80
2015,10,03,15,15,18.80
2015,10,03,15,16,18.80
2015,10,03,15,17,18.80
2015,10,03,15,18,18.90
2015,10,03,15,19,18.90
2015,10,03,15,20,18.90
2015,10,03,15,21,18.90
2015,10,03,15,22,19.00
2015,10,03,15,23,19.00
2015,10,03,15,24,19.00
2015,10,03,15,25,19.10
2015,10,03,15,26,19.10
2015,10,03,15,27,19.20
2015,10,03,15,28,19.20
2015,10,03,15,29,19.20
2015,10,03,15,30,19.30
2015,10,03,15,31,19.30
2015,10,03,15,32,19.30
2015,10,03,15,33,19.30
2015,10,03,15,34,19.40
2015,10,03,15,35,19.50
2015,10,03,15,36,19.50
2015,10,03,15,37,19.60
2015,10,03,15,38,19.60
2015,10,03,15,39,19.60
2015,10,03,15,40,19.60
2015,10,03,15,41,19.70
2015,10,03,15,42,19.70
2015,10,03,15,43,19.70
2015,10,03,15,44,19.80
2015,10,03,15,45,19.80
2015,10,03,15,46,19.80
2015,10,03,15,47,19.80
2015,10,03,15,48,19.80
2015,10,03,15,49,19.80
2015,10,03,15,50,19.90
2015,10,03,15,51,19.90
2015,10,03,15,52,19.90
2015,10,03,15,53,19.90
2015,10,03,15,54,19.90
2015,10,03,15,55,19.90
2015,10,03,15,56,19.90
2015,10,03,15,57,19.90
2015,10,03,15,58,19.90
2015,10,03,15,59,19.90
2015,10,03,16,00,19.80
2015,10,03,16,01,19.80
2015,10,03,16,02,19.80
2015,10,03,16,03,19.80
2015,10,03,16,04,19.80
2015,10,03,16,05,19.80
2015,10,03,16,06,19.80
2015,10,03,16,07,19.70
2015,10,03,16,08,19.70
2015,10,03,16,09,19.70
2015,10,03,16,10,19.70
2015,10,03,16,11,19.70
2015,10,03,16,12,19.70
2015,10,03,16,13,19.60
2015,10,03,16,14,19.60
2015,10,03,16,15,19.60
2015,10,03,16,16,19.60
2015,10,03,16,17,19.60
2015,10,03,16,18,19.60
2015,10,03,16,19,19.60
2015,10,03,16,20,19.60
2015,10,03,16,21,19.60
2015,10,03,16,22,19.60
2015,10,03,16,23,19.50
2015,10,03,16,24,19.50
2015,10,03,16,25,19.50
2015,10,03,16,26,19.50
2015,10,03,16,27,19.50
2015,10,03,16,28,19.50
2015,10,03,16,29,19.50
2015,10,03,16,30,19.40
2015,10,03,16,31,19.40
2015,10,03,16,32,19.40
2015,10,03,16,33,19.40
2015,10,03,16,34,19.40
2015,10,03,16,35,19.40
2015,10,03,16,36,19.40
2015,10,03,16,37,19.40
2015,10,03,16,38,19.40
2015,10,03,16,39,19.40
2015,10,03,16,40,19.30
2015,10,03,16,41,19.30
2015,10,03,16,42,19.30
2015,10,03,16,43,19.30
2015,10,03,16,44,19.30
2015,10,03,16,45,19.30
2015,10,03,16,46,19.30
2015,10,03,16,47,19.20
2015,10,03,16,48,19.30
2015,10,03,16,49,19.20
2015,10,03,16,50,19.20
2015,10,03,16,51,19.20
2015,10,03,16,52,19.20
2015,10,03,16,53,19.20
2015,10,03,16,54,19.20
2015,10,03,16,55,19.20
2015,10,03,16,56,19.10
2015,10,03,16,57,19.10
2015,10,03,16,58,19.10
2015,10,03,16,59,19.10
2015,10,03,17,00,19.10
2015,10,03,17,01,19.10
2015,10,03,17,02,19.10
2015,10,03,17,03,19.10
2015,10,03,17,04,19.10
2015,10,03,17,05,19.10
2015,10,03,17,06,19.10
2015,10,03,17,07,19.10
2015,10,03,17,08,19.10
2015,10,03,17,09,19.00
2015,10,03,17,10,19.00
2015,10,03,17,11,19.00
2015,10,03,17,12,19.00
2015,10,03,17,13,18.90
2015,10,03,17,14,18.90
2015,10,03,17,15,18.90
2015,10,03,17,16,18.90
2015,10,03,17,17,18.80
2015,10,03,17,18,18.80
2015,10,03,17,19,18.80
2015,10,03,17,20,18.80
2015,10,03,17,21,18.80
2015,10,03,17,22,18.70
2015,10,03,17,23,18.70
2015,10,03,17,24,18.70
2015,10,03,17,25,18.70
2015,10,03,17,26,18.70
2015,10,03,17,27,18.70
2015,10,03,17,28,18.60
2015,10,03,17,29,18.60
2015,10,03,17,30,18.60
2015,10,03,17,31,18.60
2015,10,03,17,32,18.50
2015,10,03,17,33,18.40
2015,10,03,17,34,18.40
2015,10,03,17,35,18.40
2015,10,03,17,36,18.30
2015,10,03,17,37,18.30
2015,10,03,17,38,18.30
2015,10,03,17,39,18.20